Погода в Громыках

Россия / Брянская область     52°58′28″N   33°28′22″E
темп.,
°C
ветер,
м/с
пор.,
м/с
влажн.,
%
обл.,
%
осадки,
мм/ч
давл.,
гПа
погр.,
м
13 апреля, вт
вт1300:00+10вюв2489100 0.0 102164
03:00+9юв3790100 0.0 1021119
06:00+9юв3589100 0.0 102273
09:00+13юв4774100 0.0 1021263
12:00+17ююв465761 0.0 10201136
15:00+18ю575993 0.4 10191250
18:00+15ю3773100 1.1 1018192
21:00+12юв3982100 1.7 1019298
14 апреля, ср
ср1400:00+12юв41081100 0.1 1018368
03:00+10ю48916 0.1 1018239
06:00+9ююв369598 0.0 1018244
09:00+9ююв3791100 0.0 1018373
12:00+13ююв3571100 0.0 1018882
15:00+15ююв3559100 0.3 10161205
18:00+14ююв2368100 0.4 1015112
21:00+11юв2276100 0.4 101628
15 апреля, чт
чт1500:00+10ююв2384100 0.1 101551
03:00+10вюв2388100 0.1 101584
06:00+9ссв2391100 0.3 101473
09:00+11вюв4983100 0.7 1014542
12:00+12в567770 0.2 1014701
15:00+13в446947 0.7 1013852
18:00+13в3469100 0.4 1013780
21:00+10в358298 0.9 101394
16 апреля, пт
пт1600:00+10всв228499 0.1 101329
03:00+9вюв2487100 0.1 101383
06:00+9вюв3791100 0.4 1013329
09:00+10в478298 2.9 1013441
12:00+12в567099 0.9 10131060
15:00+13вюв5766100 3.4 1014985
18:00+12ююв356772 0.8 1014812
21:00+8ю33835 0.9 101655
17 апреля, сб
сб1700:00+6вюв22855 0.0 101712
03:00+5юв338615 0.0 101842
06:00+4ю228684 0.0 101913
09:00+8зсз107099 0.0 1020268
12:00+10сз236585 0.0 1020780
15:00+9ссз1589100 2.8 1019465
18:00+7зюз4690100 1.6 1020277
21:00+7зсз2494100 2.1 1021121